Content
SEND FEEDBACK

Daily
Averages
Monthly
Summary
United States of America

TAMUNING, GUAM


Home > North America > United States > Guam
Elevation: 250 feet     Latitude: 13 29N     Longitude: 144 47E

WEATHER
 
SELECT A DAY
Number of Records: 342,702;   Date Range: 1/1/95 - 9/21/14
 
SHARE

PRINT THIS DATA

[ ← Previous Day ]
WEATHER ALMANAC - NOVEMBER 17, 2013
[ Next Day → ]
[ °C ]   °F
Weather ElementAverageHighLow
Temperature80.6 °F84.2 °F (10:23 am)78.3 °F (4:58 am)
Dewpoint75.5 °F77 °F (3:46 am)72.9 °F (1:58 am)
Humidity84.6 %94 % (3:46 am)74 % (12:58 pm)
Barometer29.82 in29.88 in (11:03 pm)29.77 in (3:58 am)
Wind Speed15.3 mph20.7 mph (8:58 am)
Wind Gust25.3 mph (10:23 am)
Weather ElementAverage
Visibility9.9 mi
Wind DirectionENE (59 °)

Weather ElementTotal
Precipitation0.02 in
Cooling Degree Days16.3 (Base 65)
Growing Degree Days31.3 (Base 50)
Averaged from 69 records on November 17, 2013
WEATHER CONDITIONS BREAKOUT
WIND DIRECTION BREAKOUT
WEATHER BY HOUR - NOVEMBER 17, 2013
[ °C ]   °F
Local TimeTemperatureDewpointHumidityBarometerVisibilityWind DirectionWind SpeedGust SpeedPrecipitationEventsConditions
12:48 AM78.8 °F73.4 °F83 %29.84 in10.0 miNE (40°)16.1 mphMostly Cloudy
12:58 AM79.5 °F73.0 °F80 %29.81 in10.0 miNE (40°)17.3 mphScattered Clouds
1:58 AM79.3 °F72.9 °F80 %29.79 in10.0 miNE (50°)18.4 mphPartly Cloudy
2:58 AM79.2 °F73.8 °F83 %29.78 in10.0 miNE (50°)16.1 mphScattered Clouds
3:18 AM78.8 °F73.4 °F83 %29.80 in10.0 miNE (50°)17.3 mphMostly Cloudy
3:23 AM78.8 °F75.2 °F89 %29.80 in10.0 miNE (40°)15.0 mphScattered Clouds
3:28 AM78.8 °F75.2 °F89 %29.80 in10.0 miNE (40°)13.8 mphMostly Cloudy
3:33 AM78.8 °F75.2 °F89 %29.80 in10.0 miNE (40°)12.7 mphMostly Cloudy
3:41 AM78.8 °F75.2 °F89 %29.80 in8.0 miNE (50°)17.3 mphRainLight Rain
3:46 AM78.8 °F77.0 °F94 %29.80 in6.0 miNE (50°)13.8 mphRainRain
3:56 AM78.8 °F75.2 °F89 %29.80 in10.0 miNE (50°)18.4 mph20.7 mphMostly Cloudy
3:58 AM78.8 °F75.2 °F89 %29.77 in10.0 miNE (50°)17.3 mph0.02 inMostly Cloudy
4:03 AM78.8 °F77.0 °F94 %29.80 in10.0 miNE (50°)18.4 mphMostly Cloudy
4:13 AM78.8 °F75.2 °F89 %29.80 in10.0 miNE (50°)15.0 mphMostly Cloudy
4:18 AM78.8 °F77.0 °F94 %29.80 in10.0 miNE (50°)12.7 mphMostly Cloudy
4:23 AM78.8 °F77.0 °F94 %29.80 in10.0 miENE (60°)11.5 mphMostly Cloudy
4:53 AM78.8 °F75.2 °F89 %29.80 in10.0 miNE (50°)16.1 mphScattered Clouds
4:58 AM78.3 °F74.8 °F89 %29.77 in10.0 miENE (60°)16.1 mphScattered Clouds
5:28 AM78.8 °F75.2 °F89 %29.81 in10.0 miENE (60°)17.3 mphMostly Cloudy
5:33 AM78.8 °F75.2 °F89 %29.81 in10.0 miENE (60°)17.3 mphScattered Clouds
5:48 AM78.8 °F73.4 °F83 %29.81 in10.0 miNE (50°)17.3 mphMostly Cloudy
5:53 AM78.8 °F73.4 °F83 %29.81 in10.0 miENE (60°)13.8 mphScattered Clouds
5:58 AM78.3 °F73.6 °F85 %29.78 in10.0 miNE (50°)16.1 mphScattered Clouds
6:03 AM78.8 °F73.4 °F83 %29.81 in10.0 miENE (60°)15.0 mphMostly Cloudy
6:18 AM78.8 °F73.4 °F83 %29.82 in10.0 miENE (60°)16.1 mphScattered Clouds
6:28 AM78.8 °F73.4 °F83 %29.82 in10.0 miENE (60°)17.3 mphMostly Cloudy
6:33 AM78.8 °F73.4 °F83 %29.82 in10.0 miENE (60°)16.1 mphScattered Clouds
6:58 AM79.0 °F73.9 °F84 %29.81 in10.0 miENE (60°)16.1 mphPartly Cloudy
7:58 AM80.6 °F73.8 °F80 %29.82 in10.0 miENE (60°)17.3 mphPartly Cloudy
8:28 AM80.6 °F75.2 °F84 %29.86 in10.0 miENE (60°)19.6 mphMostly Cloudy
8:58 AM81.5 °F75.0 °F81 %29.84 in10.0 miNE (50°)20.7 mphMostly Cloudy
9:43 AM82.4 °F75.2 °F79 %29.87 in10.0 miENE (70°)17.3 mph24.2 mphMostly Cloudy
9:48 AM82.4 °F75.2 °F79 %29.87 in10.0 miENE (60°)17.3 mph24.2 mphMostly Cloudy
9:53 AM82.4 °F75.2 °F79 %29.87 in10.0 miENE (60°)16.1 mph24.2 mphMostly Cloudy
9:58 AM82.6 °F75.9 °F80 %29.84 in10.0 miENE (60°)17.3 mphMostly Cloudy
10:08 AM82.4 °F77.0 °F84 %29.87 in10.0 miENE (60°)17.3 mphMostly Cloudy
10:13 AM82.4 °F75.2 °F79 %29.87 in10.0 miENE (60°)18.4 mph24.2 mphMostly Cloudy
10:23 AM84.2 °F77.0 °F79 %29.87 in10.0 miENE (60°)19.6 mph25.3 mphScattered Clouds
10:48 AM82.4 °F77.0 °F84 %29.86 in10.0 miENE (70°)18.4 mphMostly Cloudy
10:58 AM83.3 °F76.5 °F80 %29.83 in10.0 miENE (70°)17.3 mphScattered Clouds
11:58 AM84.0 °F75.6 °F76 %29.81 in10.0 miENE (70°)18.4 mphClear
12:58 PM84.2 °F75.2 °F74 %29.81 in10.0 miEast (80°)16.1 mphPartly Cloudy
1:43 PM84.2 °F77.0 °F79 %29.81 in10.0 miENE (70°)15.0 mphMostly Cloudy
1:53 PM82.4 °F77.0 °F84 %29.81 in10.0 miENE (70°)12.7 mphMostly Cloudy
1:58 PM82.9 °F76.6 °F81 %29.78 in10.0 miENE (60°)15.0 mphMostly Cloudy
2:03 PM84.2 °F77.0 °F79 %29.81 in10.0 miENE (70°)17.3 mph21.9 mphMostly Cloudy
2:23 PM84.2 °F77.0 °F79 %29.80 in10.0 miENE (70°)16.1 mphMostly Cloudy
2:38 PM82.4 °F77.0 °F84 %29.80 in10.0 miENE (70°)15.0 mphScattered Clouds
2:48 PM84.2 °F75.2 °F74 %29.80 in10.0 miENE (60°)15.0 mphMostly Cloudy
2:58 PM82.4 °F77.0 °F84 %29.77 in10.0 miENE (60°)15.0 mphMostly Cloudy
3:03 PM82.4 °F77.0 °F84 %29.80 in10.0 miENE (60°)15.0 mphScattered Clouds
3:58 PM82.6 °F74.8 °F77 %29.77 in10.0 miENE (60°)13.8 mphPartly Cloudy
4:58 PM80.4 °F74.5 °F82 %29.78 in10.0 miENE (60°)13.8 mphPartly Cloudy
5:58 PM79.3 °F74.7 °F86 %29.79 in10.0 miENE (60°)11.5 mphClear
6:58 PM79.9 °F75.0 °F85 %29.81 in10.0 miENE (70°)12.7 mphPartly Cloudy
7:38 PM80.6 °F75.2 °F84 %29.85 in10.0 miENE (60°)13.8 mphMostly Cloudy
7:43 PM80.6 °F75.2 °F84 %29.86 in10.0 miENE (60°)10.4 mphScattered Clouds
7:58 PM79.7 °F76.5 °F90 %29.83 in10.0 miENE (70°)11.5 mphScattered Clouds
8:03 PM80.6 °F77.0 °F89 %29.86 in10.0 miENE (60°)11.5 mphMostly Cloudy
8:13 PM80.6 °F77.0 °F89 %29.87 in10.0 miENE (60°)10.4 mphMostly Cloudy
8:18 PM80.6 °F75.2 °F84 %29.87 in10.0 miENE (60°)11.5 mphScattered Clouds
8:58 PM79.9 °F76.5 °F89 %29.86 in10.0 miENE (60°)12.7 mphScattered Clouds
9:38 PM80.6 °F77.0 °F89 %29.87 in10.0 miENE (60°)13.8 mphMostly Cloudy
9:58 PM79.9 °F76.1 °F88 %29.84 in10.0 miENE (70°)12.7 mphMostly Cloudy
10:08 PM80.6 °F77.0 °F89 %29.87 in10.0 miENE (70°)13.8 mphScattered Clouds
10:58 PM79.9 °F76.5 °F89 %29.86 in10.0 miENE (60°)10.4 mphMostly Cloudy
11:03 PM80.6 °F77.0 °F89 %29.88 in10.0 miENE (60°)13.8 mphMostly Cloudy
11:18 PM80.6 °F77.0 °F89 %29.88 in10.0 miENE (70°)11.5 mphScattered Clouds
11:58 PM79.9 °F76.1 °F88 %29.84 in10.0 miENE (70°)16.1 mphPartly Cloudy
Hourly data recorded from PGUA, located miles away from Tamuning, Guam







STORIES FROM OUR PARTNERS